Tulsa, OK

8:24 AM CST on November 19, 2017 (GMT -0600)
Tulsa International

Weather History for KTUL - April, 2014

Change the Weather History Date:

Tuesday, April 8, 2014

  Actual Average Record
Temperature  
Mean Temperature 54 °F 58 °F  
Max Temperature 66 °F 70 °F 89 °F (2011)
Min Temperature 41 °F 47 °F 26 °F (2007)
Degree Days  
Heating Degree Days 11 8  
Month to date heating degree days 82 70  
Since 1 July heating degree days 3945 3419  
Cooling Degree Days 0 1  
Month to date cooling degree days 1 8  
Year to date cooling degree days 2 20  
Growing Degree Days 6 (Base 50)    
Moisture  
Dew Point 33 °F    
Average Humidity 53    
Maximum Humidity 86    
Minimum Humidity 20    
Precipitation  
Precipitation 0.00 in 0.10 in 2.33 in (1913)
Month to date precipitation 0.25 0.83  
Year to date precipitation 3.06 7.63  
Sea Level Pressure  
Sea Level Pressure 30.03 in    
Wind  
Wind Speed 13 mph (NW)    
Max Wind Speed 35 mph    
Max Gust Speed 45 mph    
Visibility 10 miles    
Events      
T = Trace of Precipitation, MM = Missing Value Source: NWS Daily Summary

Daily Weather History Graph

Daily Weather History Graph

Search for Another Location

Airport or City:

Trip Planner

Search our weather history database for the weather conditions in past years. The results will help you decide how hot, cold, wet, or windy it might be!

Date:

Astronomy

Apr. 08, 2014 Rise Set
Actual Time 6:59 AM CDT 7:51 PM CDT
Civil Twilight 6:33 AM CDT 8:17 PM CDT
Nautical Twilight 6:02 AM CDT 8:48 PM CDT
Astronomical Twilight 5:30 AM CDT 9:20 PM CDT
Moon 1:56 PM CDT (4/8) 3:02 AM CDT (4/8)
Length of Visible Light 13h 44m
Length of Day
12h 51m
Waxing Gibbous, 63% of the Moon is Illuminated
Apr 8
Waxing Gibbous
Apr 15
Full
Apr 22
Last Quarter
Apr 29
New
May 6
First Quarter

Hourly Weather History & Observations

Time (CDT) Temp. Dew Point Humidity Pressure Visibility Wind Dir Wind Speed Gust Speed Precip Events Conditions
12:53 AM 51.1 °F 43.0 °F 74% 29.93 in 10.0 mi West 8.1 mph - N/A   Scattered Clouds
1:53 AM 46.9 °F 42.1 °F 83% 29.93 in 10.0 mi West 6.9 mph - N/A   Partly Cloudy
2:53 AM 48.0 °F 42.1 °F 80% 29.93 in 10.0 mi West 8.1 mph - N/A   Mostly Cloudy
3:53 AM 50.0 °F 41.0 °F 71% 29.93 in 10.0 mi WNW 11.5 mph - N/A   Mostly Cloudy
4:53 AM 48.9 °F 39.9 °F 71% 29.93 in 10.0 mi NW 12.7 mph - N/A   Mostly Cloudy
5:53 AM 48.9 °F 39.9 °F 71% 29.95 in 10.0 mi NW 10.4 mph - N/A   Mostly Cloudy
6:53 AM 48.0 °F 39.0 °F 71% 29.97 in 10.0 mi NW 11.5 mph - N/A   Partly Cloudy
7:53 AM 48.0 °F 39.0 °F 71% 30.01 in 10.0 mi NW 13.8 mph - N/A   Partly Cloudy
8:53 AM 51.1 °F 39.0 °F 63% 30.03 in 10.0 mi NW 16.1 mph - N/A   Partly Cloudy
9:53 AM 53.1 °F 39.0 °F 59% 30.06 in 10.0 mi NNW 20.7 mph 25.3 mph N/A   Mostly Cloudy
10:53 AM 57.9 °F 37.9 °F 47% 30.07 in 10.0 mi NNW 18.4 mph - N/A   Partly Cloudy
11:53 AM 61.0 °F 34.0 °F 36% 30.06 in 10.0 mi NNW 21.9 mph 39.1 mph N/A   Scattered Clouds
12:53 PM 63.0 °F 30.9 °F 30% 30.06 in 10.0 mi NNW 25.3 mph 35.7 mph N/A   Mostly Cloudy
1:53 PM 66.0 °F 30.0 °F 26% 30.05 in 10.0 mi NNW 23.0 mph 39.1 mph N/A   Mostly Cloudy
2:53 PM 66.0 °F 26.1 °F 22% 30.04 in 10.0 mi NNW 21.9 mph 38.0 mph N/A   Scattered Clouds
3:53 PM 66.0 °F 26.1 °F 22% 30.03 in 10.0 mi North 23.0 mph 35.7 mph N/A   Partly Cloudy
4:53 PM 64.9 °F 24.1 °F 21% 30.04 in 10.0 mi North 19.6 mph 34.5 mph N/A   Partly Cloudy
5:53 PM 64.0 °F 23.0 °F 21% 30.04 in 10.0 mi NNW 18.4 mph 26.5 mph N/A   Partly Cloudy
6:53 PM 63.0 °F 23.0 °F 22% 30.06 in 10.0 mi North 18.4 mph - N/A   Partly Cloudy
7:53 PM 55.9 °F 24.1 °F 29% 30.09 in 10.0 mi North 9.2 mph - N/A   Partly Cloudy
8:53 PM 55.0 °F 24.1 °F 30% 30.11 in 10.0 mi NNW 3.5 mph - N/A   Partly Cloudy
9:53 PM 54.0 °F 23.0 °F 30% 30.13 in 10.0 mi NNE 4.6 mph - N/A   Partly Cloudy
10:53 PM 48.9 °F 26.1 °F 41% 30.13 in 10.0 mi Calm Calm - N/A   Partly Cloudy
11:53 PM 48.0 °F 28.0 °F 46% 30.14 in 10.0 mi Calm Calm - N/A   Partly Cloudy